• In Hungary
  • List of Countries
  • For 7 days
  • Water Temperature
  • Satellite Maps
  • Weather Map
  • News
  • Weather Widgets
  • user-avatar
    Login

    Hourly Weather Blazejowice

    Today, 17 October, Tuesday

    Time Temperature Precipitation Wind Pressure Humidity
    00:00 +14°C° 0 mm 2 mps 743 mmHg 82%
    01:00 +13°C° 0 mm 2 mps 743 mmHg 83%
    02:00 +13°C° 0 mm 2 mps 743 mmHg 83%
    03:00 +13°C° 0 mm 2 mps 743 mmHg 83%
    04:00 +13°C° 0 mm 2 mps 743 mmHg 84%
    05:00 +13°C° 0 mm 2 mps 743 mmHg 83%
    06:00 +13°C° 0 mm 2 mps 743 mmHg 82%
    07:00 +13°C° 0 mm 2 mps 743 mmHg 81%
    08:00 +15°C° 0 mm 2 mps 743 mmHg 73%
    09:00 +17°C° 0 mm 2 mps 743 mmHg 65%
    10:00 +19°C° 0 mm 2 mps 743 mmHg 57%
    11:00 +20°C° 0 mm 2 mps 743 mmHg 54%
    12:00 +21°C° 0 mm 2 mps 743 mmHg 50%
    13:00 +24°C° 0 mm 2 mps 743 mmHg 47%
    14:00 +23°C° 0 mm 2 mps 742 mmHg 51%
    15:00 +21°C° 0 mm 2 mps 742 mmHg 54%
    16:00 +20°C° 0 mm 2 mps 741 mmHg 58%
    17:00 +19°C° 0 mm 2 mps 741 mmHg 62%
    18:00 +18°C° 0 mm 2 mps 741 mmHg 66%
    19:00 +17°C° 0 mm 2 mps 741 mmHg 70%
    20:00 +16°C° 0 mm 3 mps 740 mmHg 72%
    21:00 +16°C° 0 mm 3 mps 740 mmHg 73%
    22:00 +14°C° 0 mm 3 mps 740 mmHg 74%
    23:00 +15°C° 0 mm 2 mps 740 mmHg 75%

    Tomorrow, 18 October, Wednesday

    Time Temperature Precipitation Wind Pressure Humidity
    00:00 +14°C° 0 mm 2 mps 740 mmHg 76%
    01:00 +14°C° 0 mm 2 mps 740 mmHg 77%
    02:00 +14°C° 0 mm 2 mps 739 mmHg 77%
    03:00 +13°C° 0 mm 2 mps 739 mmHg 78%
    04:00 +13°C° 0 mm 2 mps 739 mmHg 79%
    05:00 +13°C° 0 mm 2 mps 739 mmHg 79%
    06:00 +13°C° 0 mm 2 mps 739 mmHg 79%
    07:00 +13°C° 0 mm 2 mps 739 mmHg 79%
    08:00 +15°C° 0 mm 2 mps 739 mmHg 72%
    09:00 +17°C° 0 mm 2 mps 738 mmHg 66%
    10:00 +19°C° 0 mm 2 mps 738 mmHg 59%
    11:00 +20°C° 0 mm 2 mps 738 mmHg 56%
    12:00 +21°C° 0 mm 2 mps 738 mmHg 52%
    13:00 +23°C° 0 mm 2 mps 737 mmHg 49%
    14:00 +21°C° 0 mm 2 mps 737 mmHg 53%
    15:00 +20°C° 0 mm 2 mps 737 mmHg 56%
    16:00 +21°C° 0 mm 1 mps 736 mmHg 60%
    17:00 +20°C° 0 mm 1 mps 736 mmHg 63%
    18:00 +19°C° 0 mm 1 mps 736 mmHg 65%
    19:00 +18°C° 0 mm 1 mps 736 mmHg 68%
    20:00 +16°C° 0 mm 1 mps 736 mmHg 71%
    21:00 +15°C° 0 mm 2 mps 736 mmHg 73%
    22:00 +15°C° 0 mm 2 mps 736 mmHg 76%
    23:00 +14°C° 0 mm 1 mps 736 mmHg 77%

    Day after tomorrow, 19 October, Thursday

    Time Temperature Precipitation Wind Pressure Humidity
    00:00 +14°C° 0 mm 1 mps 736 mmHg 79%
    01:00 +14°C° 0 mm 1 mps 736 mmHg 81%
    02:00 +13°C° 0 mm 1 mps 736 mmHg 82%
    03:00 +13°C° 0 mm 1 mps 736 mmHg 83%
    04:00 +13°C° 0 mm 1 mps 735 mmHg 84%
    05:00 +12°C° 0 mm 1 mps 735 mmHg 85%
    06:00 +12°C° 0 mm 1 mps 735 mmHg 86%
    07:00 +12°C° 0 mm 1 mps 735 mmHg 86%
    08:00 +14°C° 0 mm 2 mps 736 mmHg 80%
    09:00 +15°C° 0 mm 2 mps 736 mmHg 73%
    10:00 +17°C° 0 mm 2 mps 736 mmHg 67%
    11:00 +18°C° 0 mm 2 mps 736 mmHg 64%
    12:00 +18°C° 0 mm 2 mps 736 mmHg 60%
    13:00 +19°C° 0 mm 2 mps 736 mmHg 57%
    14:00 +19°C° 0 mm 2 mps 736 mmHg 59%
    15:00 +19°C° 0 mm 1 mps 736 mmHg 62%
    16:00 +19°C° 0 mm 1 mps 735 mmHg 65%
    17:00 +18°C° 0 mm 1 mps 736 mmHg 68%
    18:00 +16°C° 0 mm 1 mps 736 mmHg 71%
    19:00 +15°C° 0 mm 1 mps 736 mmHg 75%
    20:00 +14°C° 0 mm 1 mps 737 mmHg 76%
    21:00 +14°C° 0 mm 1 mps 737 mmHg 78%
    22:00 +13°C° 0 mm 2 mps 737 mmHg 79%
    23:00 +13°C° 0 mm 2 mps 737 mmHg 80%

    20 October, Friday

    Time Temperature Precipitation Wind Pressure Humidity
    00:00 +13°C° 0 mm 2 mps 737 mmHg 81%
    01:00 +12°C° 0 mm 2 mps 737 mmHg 82%
    02:00 +12°C° 0 mm 2 mps 737 mmHg 82%
    03:00 +12°C° 0 mm 2 mps 737 mmHg 83%
    04:00 +12°C° 0 mm 2 mps 737 mmHg 83%
    05:00 +12°C° 0 mm 2 mps 737 mmHg 82%
    06:00 +10°C° 0 mm 2 mps 737 mmHg 81%
    07:00 +10°C° 0 mm 2 mps 737 mmHg 80%
    08:00 +12°C° 0 mm 3 mps 737 mmHg 73%
    09:00 +14°C° 0 mm 3 mps 737 mmHg 65%
    10:00 +17°C° 0 mm 3 mps 737 mmHg 58%
    11:00 +18°C° 0 mm 3 mps 737 mmHg 54%
    12:00 +19°C° 0 mm 3 mps 737 mmHg 50%
    13:00 +21°C° 0 mm 4 mps 737 mmHg 46%
    14:00 +20°C° 0 mm 4 mps 737 mmHg 50%
    15:00 +19°C° 0 mm 3 mps 737 mmHg 54%
    16:00 +18°C° 0 mm 3 mps 737 mmHg 58%
    17:00 +18°C° 0 mm 3 mps 737 mmHg 61%
    18:00 +17°C° 0 mm 3 mps 737 mmHg 65%
    19:00 +15°C° 0 mm 4 mps 738 mmHg 68%
    20:00 +15°C° 0 mm 4 mps 738 mmHg 69%
    21:00 +14°C° 0 mm 4 mps 738 mmHg 70%
    22:00 +14°C° 0 mm 4 mps 738 mmHg 71%
    23:00 +14°C° 0 mm 4 mps 738 mmHg 72%

    21 October, Saturday

    Time Temperature Precipitation Wind Pressure Humidity
    00:00 +13°C° 0 mm 3 mps 738 mmHg 73%
    01:00 +13°C° 0 mm 3 mps 738 mmHg 75%
    02:00 +13°C° 0 mm 3 mps 738 mmHg 75%
    03:00 +12°C° 0 mm 3 mps 737 mmHg 76%
    04:00 +12°C° 0 mm 3 mps 737 mmHg 77%
    05:00 +12°C° 0.1 mm 3 mps 737 mmHg 77%
    06:00 +12°C° 0.1 mm 3 mps 737 mmHg 77%
    07:00 +12°C° 0.1 mm 3 mps 737 mmHg 77%
    08:00 +14°C° 0 mm 4 mps 737 mmHg 72%
    09:00 +15°C° 0 mm 4 mps 737 mmHg 67%
    10:00 +18°C° 0 mm 4 mps 737 mmHg 62%
    11:00 +19°C° 0 mm 4 mps 737 mmHg 58%
    12:00 +20°C° 0 mm 5 mps 736 mmHg 55%
    13:00 +21°C° 0 mm 5 mps 736 mmHg 52%
    14:00 +20°C° 0 mm 4 mps 736 mmHg 55%
    15:00 +19°C° 0 mm 4 mps 736 mmHg 58%
    16:00 +19°C° 0 mm 3 mps 735 mmHg 61%
    17:00 +18°C° 0 mm 3 mps 735 mmHg 63%
    18:00 +17°C° 0 mm 3 mps 735 mmHg 66%
    19:00 +16°C° 0 mm 3 mps 735 mmHg 68%
    20:00 +16°C° 0 mm 3 mps 735 mmHg 68%
    21:00 +14°C° 0 mm 3 mps 735 mmHg 69%
    22:00 +14°C° 0 mm 3 mps 735 mmHg 69%
    23:00 +14°C° 0 mm 3 mps 735 mmHg 70%

    22 October, Sunday

    Time Temperature Precipitation Wind Pressure Humidity
    00:00 +14°C° 0 mm 3 mps 736 mmHg 70%
    01:00 +13°C° 0 mm 3 mps 736 mmHg 71%
    02:00 +14°C° 0 mm 2 mps 735 mmHg 73%
    03:00 +14°C° 0 mm 2 mps 735 mmHg 75%
    04:00 +14°C° 0 mm 2 mps 735 mmHg 77%
    05:00 +14°C° 0 mm 2 mps 735 mmHg 79%
    06:00 +14°C° 0 mm 2 mps 735 mmHg 81%
    07:00 +14°C° 0 mm 2 mps 735 mmHg 83%
    08:00 +14°C° 0.1 mm 2 mps 735 mmHg 82%
    09:00 +15°C° 0.1 mm 2 mps 735 mmHg 80%
    10:00 +15°C° 0.1 mm 2 mps 735 mmHg 79%
    11:00 +14°C° 1.1 mm 3 mps 735 mmHg 81%
    12:00 +13°C° 1.1 mm 3 mps 735 mmHg 83%
    13:00 +13°C° 1.1 mm 3 mps 734 mmHg 86%
    14:00 +12°C° 1.8 mm 3 mps 734 mmHg 87%
    15:00 +11°C° 1.8 mm 3 mps 735 mmHg 88%
    16:00 +11°C° 1.8 mm 3 mps 735 mmHg 89%
    17:00 +11°C° 0.8 mm 3 mps 735 mmHg 90%
    18:00 +10°C° 0.8 mm 3 mps 735 mmHg 90%
    19:00 +10°C° 0.8 mm 2 mps 736 mmHg 90%
    20:00 +10°C° 0.3 mm 3 mps 736 mmHg 88%
    21:00 +10°C° 0.3 mm 3 mps 736 mmHg 86%
    22:00 +10°C° 0.3 mm 3 mps 737 mmHg 83%
    23:00 +9°C° 0.1 mm 3 mps 737 mmHg 83%
    Show more